This demonstration page uses our WeatherBlox Daily Observations layout. Learn more.

Left ArrowRight Arrow

40.92945, -100.16068

Hourly Observations for November 20, 2019

Temp ( °F °C ) Dew Point ( °F °C ) Humidity (%) Winds ( mph kmh ) Pressure ( in mb ) Visibility ( mi km ) Precip ( " mm )
12:15 am 00:15 Clear 42 5.5 31 -0.4 66 66 SE 9 15 29.78 1009 10 16.0934 0 0
12:35 am 00:35 Clear 41 5.1 31 -0.5 67 67 ESE 8 13 29.79 1009 10 16.0934 0 0
12:55 am 00:55 Clear 40 4.5 31 -0.7 69 69 ESE 7 11 29.79 1009 10 16.0934 0 0
1:15 am 01:15 Clear 39 3.7 30 -1 72 72 ESE 6 9 29.79 1009 10 16.0934 0 0
1:35 am 01:35 Clear 38 3.1 30 -1 75 75 ESE 7 11 29.8 1009 10 16.0934 0 0
1:55 am 01:55 Clear 37 3 30 -1 75 75 ESE 8 13 29.78 1008 10 16.0934 0 0
2:15 am 02:15 Clear 38 3.3 31 -0.7 75 75 SE 8 13 29.77 1008 10 16.0934 0 0
2:35 am 02:35 Clear 37 3 31 -0.8 76 76 ESE 6 9 29.78 1008 10 16.0934 0 0
2:55 am 02:55 Clear 36 2.3 30 -1 79 79 ESE 6 9 29.78 1009 10 16.0934 0 0
3:15 am 03:15 Clear 36 2 30 -1 81 81 ESE 6 9 29.79 1009 10 16.0934 0 0
3:35 am 03:35 Clear 33 0.8 29 -1.5 85 85 ESE 7 11 29.79 1009 10 16.0934 0 0
3:55 am 03:55 Clear 33 0.6 29 -1.5 86 86 E 6 9 29.78 1008 10 16.0934 0 0
4:15 am 04:15 Clear 33 0.5 30 -1.3 88 88 E 5 7 29.78 1008 10 16.0934 0 0
4:35 am 04:35 Clear 31 -0.8 28 -2.3 90 90 ENE 3 6 29.79 1009 10 16.0934 0 0
4:55 am 04:55 Clear 31 -0.6 28 -2.1 90 90 E 6 9 29.79 1009 10 16.0934 0 0
5:15 am 05:15 Clear 31 -0.6 28 -2 90 90 E 6 9 29.78 1009 10 16.0934 0 0
5:35 am 05:35 Clear 31 -0.4 29 -1.7 91 91 E 6 9 29.78 1008 10 16.0934 0 0
5:55 am 05:55 Clear 32 0.1 30 -1.2 91 91 E 7 11 29.76 1008 10 16.0934 0 0
6:15 am 06:15 Clear 33 0.8 31 -0.6 90 90 ESE 8 13 29.75 1007 10 16.0934 0 0
6:35 am 06:35 Clear 34 1.2 31 -0.5 89 89 ESE 6 9 29.74 1007 10 16.0934 0 0
6:55 am 06:55 Clear 34 1 31 -0.5 90 90 ESE 5 7 29.75 1007 10 16.0934 0 0
7:15 am 07:15 Clear 33 0.5 31 -0.7 92 92 E 3 6 29.76 1008 10 16.0934 0 0
7:35 am 07:35 Sunny 33 0.5 31 -0.6 92 92 E 6 9 29.76 1008 10 16.0934 0 0
7:55 am 07:55 Sunny 32 0.2 30 -0.9 92 92 ESE 5 7 29.76 1008 10 16.0934 0 0
8:15 am 08:15 Sunny 34 1.3 32 0 91 91 ESE 5 7 29.76 1008 10 16.0934 0 0
8:35 am 08:35 Sunny 35 1.8 32 0 88 88 ESE 6 9 29.76 1008 10 16.0934 0 0
8:55 am 08:55 Sunny 37 2.7 33 0.5 86 86 E 5 7 29.75 1007 10 16.0934 0 0
9:15 am 09:15 Sunny 37 3 33 0.5 84 84 ENE 5 7 29.75 1007 10 16.0934 0 0
9:35 am 09:35 Sunny 39 4.1 34 1.2 82 82 ENE 5 7 29.74 1007 10 16.0934 0 0
9:55 am 09:55 Sunny 42 5.3 35 1.8 78 78 ESE 3 6 29.71 1006 10 16.0934 0 0
10:15 am 10:15 Sunny 43 6.1 36 2 75 75 SE 7 11 29.71 1006 10 16.0934 0 0
10:35 am 10:35 Sunny 45 7.1 37 2.5 73 73 SE 8 13 29.69 1005 10 16.0934 0 0
10:55 am 10:55 Sunny 47 8.5 38 3.3 70 70 SSE 8 13 29.67 1005 10 16.0934 0 0
11:15 am 11:15 Sunny 50 9.8 39 4 67 67 SSE 8 13 29.64 1004 10 16.0934 0 0
11:35 am 11:35 Sunny 50 10.1 40 4.3 68 68 SSE 8 13 29.64 1004 10 16.0934 0 0
11:55 am 11:55 Sunny 51 10.3 40 4.5 68 68 Calm 29.64 1004 10 16.0934 0 0
12:15 pm 12:15 Sunny 51 10.7 41 4.8 67 67 Calm 29.64 1004 10 16.0934 0 0
12:35 pm 12:35 Partly Cloudy 52 11.1 41 5 66 66 N 5 7 29.63 1003 10 16.0934 0 0
12:55 pm 12:55 Partly Cloudy 53 11.5 41 5 65 65 N 7 11 29.62 1003 10 16.0934 0 0
1:15 pm 13:15 Sunny 53 11.4 41 5 65 65 NNE 6 9 29.63 1003 10 16.0934 0 0
1:35 pm 13:35 Sunny 54 12.1 41 5.2 63 63 NNE 5 7 29.62 1003 10 16.0934 0 0
1:55 pm 13:55 Sunny 55 12.5 42 5.6 63 63 ENE 5 7 29.62 1003 10 16.0934 0 0
2:15 pm 14:15 Sunny 55 12.6 42 5.6 63 63 E 6 9 29.62 1003 10 16.0934 0 0
2:35 pm 14:35 Sunny 55 12.5 42 5.6 63 63 NE 6 9 29.62 1003 10 16.0934 0 0
2:55 pm 14:55 Sunny 55 12.7 42 5.7 63 63 ENE 7 11 29.62 1003 10 16.0934 0 0
3:15 pm 15:15 Partly Cloudy 55 12.5 42 5.6 63 63 NNE 8 13 29.61 1003 10 16.0934 0 0
3:35 pm 15:35 Partly Cloudy 56 13.1 43 5.9 62 62 NE 7 11 29.61 1003 10 16.0934 0 0
3:55 pm 15:55 Mostly Cloudy 55 12.6 42 5.6 63 63 NE 7 11 29.64 1004 10 16.0934 0 0
4:15 pm 16:15 Partly Cloudy 55 12.5 42 5.5 63 63 NNE 8 13 29.64 1004 10 16.0934 0 0
4:35 pm 16:35 Sunny 54 12 40 4.6 61 61 N 10 17 29.65 1004 10 16.0934 0 0
4:55 pm 16:55 Sunny 52 11.3 40 4.3 62 62 N 13 20 29.66 1004 10 16.0934 0 0
5:15 pm 17:15 Sunny 45 7.1 34 1 65 65 N 21 33 29.72 1006 10 16.0934 0 0
5:35 pm 17:35 Mostly Cloudy 43 6 33 0.8 70 70 N 18 30 29.74 1007 10 16.0934 0 0
5:55 pm 17:55 Cloudy with Light Rain 42 5.4 33 0.8 73 73 N 23 37 29.76 1008 10 16.0934 0 0
6:15 pm 18:15 Cloudy 41 5 34 1 76 76 N 21 33 29.78 1008 10 16.0934 0 0
6:35 pm 18:35 Cloudy 40 4.7 34 1 77 77 N 21 33 29.79 1009 10 16.0934 0 0
6:55 pm 18:55 Cloudy with Light Rain 39 4 35 1.6 85 85 NNW 20 31 29.82 1010 10 16.0934 0 0
7:15 pm 19:15 Cloudy with Light Rain 38 3.3 35 1.7 89 89 NNW 18 30 29.82 1010 4 6.43736 0.02 0.508
7:35 pm 19:35 Cloudy with Light Rain 37 3 35 1.7 91 91 N 16 26 29.84 1010 5 8.0467 0.04 1.016
7:55 pm 19:55 Windy with Snow Likely 37 2.7 35 1.5 92 92 N 23 37 29.85 1011 4 6.43736 0.07 1.778
8:15 pm 20:15 Cloudy with Light Rain 37 2.7 35 1.6 93 93 NNW 16 26 29.86 1011 5 8.0467 0.02 0.508
8:35 pm 20:35 Cloudy with Rain 37 2.6 35 1.5 93 93 NNW 18 30 29.86 1011 4 6.43736 0.06 1.524
8:55 pm 20:55 Cloudy with Rain 37 2.5 35 1.5 93 93 NNW 13 20 29.87 1012 4 6.43736 0.09 2.286
9:15 pm 21:15 Cloudy with Light Rain 37 2.5 34 1.2 91 91 NNW 22 35 29.89 1012 7 11.26538 0.03 0.762
9:35 pm 21:35 Cloudy with Light Rain 36 2.3 34 1.1 92 92 NNW 20 31 29.9 1013 7 11.26538 0.04 1.016
9:55 pm 21:55 Cloudy with Light Rain 36 2 34 1 93 93 NNW 18 30 29.91 1013 7 11.26538 0.06 1.524
10:15 pm 22:15 Cloudy with Light Snow 34 1.2 33 0.5 95 95 NW 15 24 29.93 1014 4 6.43736 0.01 0.254
10:35 pm 22:35 Cloudy with Light Snow 33 0.6 32 0.2 97 97 NW 15 24 29.95 1014 3 4.82802 0.03 0.762
10:55 pm 22:55 Cloudy with Light Snow 33 0.5 32 0.2 98 98 NW 16 26 29.96 1015 2.5 4.02335 0.05 1.27
11:15 pm 23:15 Cloudy with Light Snow 33 0.7 32 0 95 95 NW 18 30 29.96 1015 4 6.43736 0.02 0.508
11:35 pm 23:35 Cloudy with Light Snow 33 0.6 32 0 96 96 NNW 15 24 29.97 1015 5 8.0467 0.03 0.762
11:55 pm 23:55 Cloudy with Drizzle 33 0.7 32 0 95 95 NW 14 22 29.97 1015 10 16.0934 0.03 0.762

Powered by AerisWeather